CO3D 3

Last updated on Sun Jun 21 2026 00:02:53 GMT+0000 (Coordinated Universal Time)

1 64900U 25156B 26171.47876997 .00003433 00000+0 16165-3 0 9996 2 64900 97.4324 250.1245 0001587 126.6035 233.5346 15.20194218 50030
UTC large
Height (km)
Speed (km/s)
/
Latitude / Longitude
Inclination (degrees)
Orbital Period (minutes)
Azimuth
Elevation
Range (km)
Doppler Factor

Next 0 passes for location: London (51.5072 / 0.1276)

No passes found over London.
CO3D 3